Tracking 29892 objects as of 21-Nov-2024
HD Live streaming from Space Station
objects crossing your sky now

CZ-6A DEB

Track CZ-6A DEB now!
10-day predictions


NORAD ID: 55237
Int'l Code: 2022-151XE
Perigee: 638.9 km
Apogee: 806.7 km
Inclination: 98.8 °
Period: 99.1 minutes
Semi major axis: 7093 km
RCS: Unknown
Launch date: November 11, 2022
Source: People's Republic of China (PRC)
Launch site: Taiyaun Space Center, China (TSC)

Note: This is SATELLITE DEBRIS
Your satellite tracking list
Your tracking list is empty




NASA's NSSDC Master Catalog

Two Line Element Set (TLE):
1 55237U 22151XE  24326.08540295  .00005496  00000-0  12249-2 0  9997
2 55237  98.8127  16.8151 0118250 208.2649 151.2096 14.53053383105857
Source of the keplerian elements: AFSPC